SR5MRF Weather Reports


Display with metric or nautical units.
time (UTC)temp
F
wind
direction
speed
MPH
gust
MPH
rain 1hr
in
rain 24hr
in
rain mn
in
humidity
%
barometer
mb
20260905215139 58 0 0.0 0.0 0.00 0.00 0.00 76 1012.6
20260905215038 58 315 0.0 0.0 0.00 0.00 0.00 76 1012.5
20260905214338 58 180 0.0 0.0 0.00 0.00 0.00 75 1012.5
20260905214139 58 180 0.0 0.0 0.00 0.00 0.00 75 1012.5
20260905213638 58 157 0.0 0.0 0.00 0.00 0.00 75 1012.3
20260905212938 58 202 0.0 0.0 0.00 0.00 0.00 75 1012.4
20260905212238 59 270 0.0 0.0 0.00 0.00 0.00 74 1012.2
20260905212139 59 270 0.0 0.0 0.00 0.00 0.00 74 1012.2
20260905211538 59 337 0.0 0.0 0.00 0.00 0.00 73 1012.2
20260905211139 59 180 0.0 0.0 0.00 0.00 0.00 73 1012.2
20260905210838 59 315 0.0 0.0 0.00 0.00 0.00 73 1012.2
20260905210138 59 202 0.0 0.0 0.00 0.00 0.00 73 1012.1
20260905205438 60 315 0.0 0.0 0.00 0.00 0.00 73 1012.1
20260905205139 60 180 0.0 0.0 0.00 0.00 0.00 73 1012.0
20260905204738 60 337 0.0 0.0 0.00 0.00 0.00 73 1012.0
20260905204139 60 337 0.0 0.0 0.00 0.00 0.00 73 1011.7
20260905204038 60 337 0.0 0.0 0.00 0.00 0.00 73 1011.8
20260905203338 60 292 0.0 0.0 0.00 0.00 0.00 72 1011.8
20260905203139 60 337 0.0 0.0 0.00 0.00 0.00 72 1011.8
20260905202638 60 225 0.0 0.0 0.00 0.00 0.00 72 1011.8
20260905202139 60 180 0.0 0.0 0.00 0.00 0.00 72 1011.6
20260905201938 60 225 0.0 0.0 0.00 0.00 0.00 71 1011.5
20260905201238 60 337 0.0 0.0 0.00 0.00 0.00 71 1011.7
20260905201139 60 337 0.0 0.0 0.00 0.00 0.00 71 1011.7
20260905200538 60 337 0.0 0.0 0.00 0.00 0.00 71 1011.6
20260905195838 60 202 0.0 0.0 0.00 0.00 0.00 71 1011.6
20260905195138 60 180 0.0 0.0 0.00 0.08 0.00 71 1011.6
20260905194438 60 337 0.0 0.0 0.00 0.08 0.00 71 1011.6
20260905194139 60 337 0.0 0.0 0.00 0.08 0.00 71 1011.7
20260905193738 60 337 0.0 0.0 0.00 0.08 0.00 71 1011.7
20260905193139 60 202 0.0 0.0 0.00 0.08 0.00 71 1011.4
20260905193038 60 202 0.0 0.0 0.00 0.08 0.00 71 1011.4
20260905192338 60 270 0.0 0.0 0.00 0.08 0.00 72 1011.6
20260905192139 60 270 0.0 0.0 0.00 0.08 0.00 72 1011.6
20260905191638 60 135 0.0 0.0 0.00 0.08 0.00 72 1011.6
20260905191139 60 180 0.0 0.0 0.00 0.08 0.00 72 1011.6
20260905190938 60 202 0.0 0.0 0.00 0.08 0.00 72 1011.4
20260905190238 60 157 0.0 0.0 0.00 0.08 0.00 72 1011.5
20260905190139 60 157 0.0 0.0 0.00 0.08 0.00 72 1011.5
20260905185538 60 157 0.0 0.0 0.00 0.12 0.00 72 1011.5
20260905185139 60 135 0.0 0.0 0.00 0.12 0.00 71 1011.7
20260905184838 60 135 0.0 0.0 0.00 0.12 0.00 71 1011.6
20260905184138 60 202 0.0 0.0 0.00 0.12 0.00 70 1011.6
20260905183438 60 180 0.0 0.0 0.00 0.12 0.00 70 1011.8
20260905183141 60 180 0.0 0.0 0.00 0.12 0.00 70 1011.9
20260905182738 60 180 0.0 0.0 0.00 0.12 0.00 70 1012.0
20260905182038 60 180 0.0 0.0 0.00 0.12 0.00 69 1012.1
20260905181338 60 180 0.0 0.0 0.00 0.12 0.00 68 1011.9
20260905181139 61 180 0.0 0.0 0.00 0.12 0.00 68 1012.0
20260905180638 61 180 0.0 0.0 0.00 0.12 0.00 68 1012.0
20260905180139 61 157 0.0 0.0 0.00 0.12 0.00 67 1011.9
20260905175938 61 157 0.0 0.0 0.00 0.12 0.00 67 1011.9
20260905175238 61 135 0.0 0.0 0.00 0.12 0.00 67 1011.7
20260905174538 61 135 0.0 0.0 0.00 0.12 0.00 67 1011.7
20260905174139 61 337 0.0 0.0 0.00 0.12 0.00 66 1011.6
20260905173838 61 337 0.0 0.0 0.00 0.12 0.00 66 1011.6
20260905173138 61 225 0.0 0.0 0.00 0.12 0.00 66 1011.6
20260905172438 61 202 0.0 0.0 0.00 0.12 0.00 66 1011.5
20260905172139 61 202 0.0 0.0 0.00 0.12 0.00 65 1011.5
20260905171738 62 292 0.0 0.0 0.00 0.12 0.00 65 1011.5
20260905171038 62 225 0.0 0.0 0.00 0.12 0.00 65 1011.5
20260905170338 62 180 0.0 0.0 0.00 0.12 0.00 64 1011.4
20260905170139 62 180 0.0 0.0 0.00 0.12 0.00 64 1011.3
20260905165638 62 202 0.0 0.0 0.00 0.12 0.00 64 1011.6
20260905165139 62 202 0.0 0.0 0.00 0.12 0.00 64 1011.4
20260905164938 62 157 0.0 0.0 0.00 0.12 0.00 64 1011.4
20260905164238 62 180 0.0 0.0 0.00 0.12 0.00 63 1011.3
20260905164139 62 180 0.0 0.0 0.00 0.12 0.00 63 1011.3
20260905163538 62 180 0.0 0.0 0.00 0.12 0.00 63 1011.3
20260905162838 62 292 0.0 0.0 0.00 0.12 0.00 62 1011.2
20260905162138 63 180 0.0 0.0 0.00 0.12 0.00 60 1011.2
20260905161438 63 225 0.0 0.0 0.00 0.12 0.00 60 1011.2
20260905160738 63 0 0.0 0.0 0.00 0.12 0.00 59 1011.1
20260905160038 64 180 0.0 0.0 0.00 0.12 0.00 59 1011.1
20260905155338 64 157 0.0 0.0 0.00 0.12 0.00 58 1011.0
20260905155141 64 157 0.0 0.0 0.00 0.12 0.00 58 1011.0
20260905154638 64 180 0.0 0.0 0.00 0.12 0.00 58 1011.0
20260905154139 64 157 0.0 0.0 0.00 0.12 0.00 58 1011.1
20260905153938 64 180 0.0 0.0 0.00 0.12 0.00 58 1011.2
20260905153238 65 337 0.0 0.0 0.00 0.12 0.00 58 1011.2
20260905153139 65 337 0.0 0.0 0.00 0.12 0.00 58 1011.2
20260905152538 66 292 0.0 0.0 0.00 0.12 0.00 57 1011.1
20260905152139 66 225 0.0 0.0 0.00 0.12 0.00 56 1011.2
20260905151838 66 202 0.0 0.0 0.00 0.12 0.00 56 1011.2
20260905151138 66 202 0.0 0.0 0.00 0.12 0.00 55 1011.2
20260905150438 67 292 0.0 0.0 0.00 0.12 0.00 54 1010.9
20260905150139 67 337 0.0 0.0 0.00 0.12 0.00 54 1010.8
20260905145738 67 315 0.0 0.0 0.00 0.12 0.00 54 1010.8
20260905145139 67 180 0.0 0.0 0.00 0.12 0.00 54 1010.7
20260905145038 67 180 0.0 0.0 0.00 0.12 0.00 54 1010.7
20260905144338 68 315 0.0 0.0 0.00 0.12 0.00 53 1010.4
20260905144139 68 247 0.0 0.0 0.00 0.12 0.00 53 1010.6
20260905143638 68 315 0.0 0.0 0.00 0.12 0.00 53 1010.4
20260905143139 68 292 0.0 0.0 0.00 0.12 0.00 53 1010.3
20260905142938 69 315 0.0 0.0 0.00 0.12 0.00 53 1010.4
20260905142238 69 315 0.0 0.0 0.00 0.12 0.00 53 1010.3
20260905142139 69 315 0.0 0.0 0.00 0.12 0.00 53 1010.1
20260905141538 69 315 0.0 0.0 0.00 0.12 0.00 53 1010.1
20260905141139 69 315 0.0 0.0 0.00 0.12 0.00 53 1010.1
20260905140838 69 0 0.0 0.0 0.00 0.12 0.00 53 1010.1
20260905140138 69 337 0.0 0.0 0.00 0.12 0.00 53 1010.2
20260905135438 69 270 0.0 0.0 0.00 0.12 0.00 53 1009.9
20260905135139 69 180 0.0 2.0 0.00 0.12 0.00 53 1009.9
20260905134738 69 337 0.0 2.0 0.00 0.12 0.00 53 1009.9
20260905134139 68 202 2.0 2.0 0.00 0.12 0.00 54 1010.0
20260905134039 68 225 0.0 0.0 0.00 0.12 0.00 53 1010.0
20260905133338 68 247 0.0 0.0 0.00 0.12 0.00 54 1010.0
20260905133139 68 270 0.0 0.0 0.00 0.12 0.00 54 1009.9
20260905132639 68 0 0.0 0.0 0.00 0.12 0.00 54 1009.9
20260905131939 68 337 0.0 0.0 0.00 0.12 0.00 54 1009.9
20260905131239 68 337 0.0 0.0 0.00 0.12 0.00 53 1009.9
20260905131139 68 337 0.0 0.0 0.00 0.12 0.00 53 1009.8
20260905130539 68 315 0.0 0.0 0.00 0.12 0.00 53 1010.0
20260905130139 69 337 0.0 0.0 0.00 0.12 0.00 52 1009.9
20260905125839 69 270 0.0 0.0 0.00 0.12 0.00 52 1009.9
20260905125139 69 0 0.0 0.0 0.00 0.12 0.00 53 1009.9
20260905124439 69 337 0.0 0.0 0.00 0.12 0.00 53 1009.9
20260905124140 69 157 0.0 0.0 0.00 0.12 0.00 52 1009.9
20260905123739 69 337 0.0 0.0 0.00 0.12 0.00 52 1010.0
20260905123140 69 337 0.0 0.0 0.00 0.12 0.00 51 1010.2
20260905123039 69 337 0.0 0.0 0.00 0.12 0.00 51 1010.2
20260905122339 70 337 0.0 0.0 0.00 0.12 0.00 52 1009.9
20260905122140 70 337 0.0 0.0 0.00 0.12 0.00 52 1009.9
20260905121639 70 337 0.0 4.0 0.00 0.12 0.00 51 1009.9
20260905121139 70 0 4.0 9.0 0.00 0.12 0.00 51 1010.0
20260905120939 70 315 9.0 9.0 0.00 0.12 0.00 51 1010.0
20260905120239 71 337 0.0 7.0 0.00 0.12 0.00 51 1009.8
20260905120139 72 337 7.0 7.0 0.00 0.12 0.00 50 1009.8
20260905115539 73 315 0.0 0.0 0.00 0.12 0.00 50 1009.9
20260905115140 73 180 0.0 0.0 0.00 0.12 0.00 50 1009.8
20260905114839 73 337 0.0 0.0 0.00 0.12 0.00 50 1009.7
20260905114139 72 202 0.0 0.0 0.00 0.12 0.00 51 1009.9
20260905113439 72 315 0.0 7.0 0.00 0.12 0.00 50 1009.9
20260905113140 72 337 7.0 7.0 0.00 0.12 0.00 50 1009.8
20260905112739 73 315 4.0 4.0 0.00 0.12 0.00 49 1009.8
20260905112039 73 0 0.0 7.0 0.00 0.12 0.00 50 1009.7
20260905111339 74 315 0.0 0.0 0.00 0.12 0.00 50 1009.8
20260905110639 74 337 0.0 0.0 0.00 0.12 0.00 51 1009.7
20260905110140 74 270 0.0 0.0 0.00 0.12 0.00 51 1009.6
20260905105939 74 202 0.0 0.0 0.00 0.12 0.00 51 1009.6
20260905105239 74 202 0.0 0.0 0.00 0.12 0.00 51 1009.5
20260905105140 74 202 0.0 0.0 0.00 0.12 0.00 51 1009.6
20260905104539 74 202 0.0 0.0 0.00 0.12 0.00 51 1009.7
20260905104140 74 135 0.0 0.0 0.00 0.12 0.00 52 1009.5
20260905103839 73 292 0.0 2.0 0.00 0.12 0.00 53 1009.5
20260905103139 72 315 0.0 0.0 0.00 0.12 0.00 55 1009.6
20260905102439 71 270 0.0 6.0 0.00 0.12 0.00 56 1009.6
20260905102140 70 270 0.0 3.0 0.00 0.12 0.00 56 1009.4
20260905101739 70 337 0.0 4.0 0.00 0.12 0.00 58 1009.4
20260905101039 69 180 0.0 0.0 0.00 0.12 0.00 58 1009.5
20260905100339 69 315 0.0 6.0 0.00 0.12 0.00 58 1009.4
20260905100140 69 0 6.0 6.0 0.00 0.12 0.00 58 1009.3
20260905095639 69 315 0.0 0.0 0.00 0.12 0.00 57 1009.3
20260905095140 69 337 0.0 0.0 0.00 0.12 0.00 57 1009.4
20260905094939 69 157 0.0 4.0 0.00 0.12 0.00 57 1009.3
20260905094239 70 225 0.0 2.0 0.00 0.12 0.00 58 1009.4
20260905094140 70 225 0.0 2.0 0.00 0.12 0.00 58 1009.4
20260905093539 70 337 2.0 2.0 0.00 0.12 0.00 57 1009.2
20260905093140 70 337 0.0 0.0 0.00 0.12 0.00 58 1009.3
20260905092839 70 202 0.0 0.0 0.00 0.12 0.00 59 1009.3
20260905092139 69 180 0.0 0.0 0.00 0.12 0.00 60 1009.3
20260905091439 69 337 0.0 0.0 0.00 0.12 0.00 61 1009.3
20260905091140 69 0 0.0 0.0 0.00 0.12 0.00 61 1009.3
20260905090739 67 315 0.0 0.0 0.00 0.12 0.00 63 1009.2
20260905090140 67 180 0.0 0.0 0.00 0.12 0.00 63 1009.2
20260905090039 67 180 0.0 0.0 0.00 0.12 0.00 64 1009.1
20260905085339 67 225 0.0 0.0 0.00 0.12 0.00 63 1009.0
20260905085140 67 337 0.0 0.0 0.00 0.12 0.00 63 1008.9
20260905084639 67 337 0.0 0.0 0.00 0.12 0.00 63 1009.1
20260905084140 68 157 0.0 0.0 0.00 0.12 0.00 63 1009.1
20260905083939 68 270 0.0 0.0 0.00 0.12 0.00 63 1009.1
20260905083239 69 180 0.0 0.0 0.00 0.12 0.00 62 1008.8
20260905082539 69 0 2.0 2.0 0.00 0.12 0.00 64 1008.9
20260905082140 69 135 0.0 0.0 0.00 0.12 0.00 65 1008.9
20260905081839 69 337 0.0 0.0 0.00 0.12 0.00 65 1008.8
20260905081139 67 157 0.0 0.0 0.00 0.12 0.00 67 1008.8
20260905080439 65 337 0.0 0.0 0.00 0.12 0.00 69 1008.9
20260905080140 65 337 0.0 0.0 0.00 0.12 0.00 70 1009.0
20260905075739 64 0 0.0 0.0 0.00 0.12 0.00 71 1008.9
20260905075039 64 337 0.0 0.0 0.00 0.12 0.00 71 1008.6
20260905074339 63 180 0.0 0.0 0.00 0.12 0.00 72 1008.6
20260905073639 63 180 0.0 0.0 0.00 0.12 0.00 72 1008.5
20260905073140 63 337 0.0 4.0 0.00 0.12 0.00 72 1008.5
20260905072939 63 292 0.0 4.0 0.00 0.12 0.00 73 1008.6
20260905072239 63 337 0.0 0.0 0.00 0.12 0.00 72 1008.4
20260905071539 63 337 0.0 0.0 0.00 0.12 0.00 73 1008.4
20260905071140 63 202 0.0 0.0 0.00 0.12 0.00 73 1008.3
20260905070839 62 315 0.0 0.0 0.00 0.12 0.00 73 1008.4
20260905070139 62 270 0.0 0.0 0.00 0.12 0.00 73 1008.2
20260905065439 62 180 0.0 0.0 0.00 0.12 0.00 74 1008.1
20260905065140 62 292 0.0 0.0 0.00 0.12 0.00 74 1008.0
20260905064739 62 337 0.0 0.0 0.00 0.12 0.00 74 1008.0
20260905064140 62 337 0.0 2.0 0.00 0.12 0.00 74 1007.9
20260905064056 62 292 0.0 0.0 0.00 0.12 0.00 74 1007.9
20260905064039 62 292 0.0 2.0 0.00 0.12 0.00 74 1007.9
20260905063339 62 315 0.0 0.0 0.00 0.12 0.00 74 1007.9
20260905063141 62 292 0.0 0.0 0.00 0.12 0.00 74 1007.9
20260905062639 62 315 0.0 0.0 0.00 0.12 0.00 74 1007.7
20260905062140 61 337 0.0 0.0 0.00 0.12 0.00 75 1007.9
20260905061939 61 337 0.0 0.0 0.00 0.12 0.00 75 1007.8
20260905061239 61 180 0.0 0.0 0.00 0.12 0.00 75 1007.6
20260905061140 61 180 0.0 0.0 0.00 0.12 0.00 75 1007.5
20260905060539 61 315 0.0 4.0 0.00 0.12 0.00 75 1007.5
20260905055839 61 337 0.0 0.0 0.00 0.12 0.00 75 1007.5
20260905055139 61 315 0.0 0.0 0.00 0.12 0.00 75 1007.6
20260905054439 60 0 0.0 0.0 0.00 0.12 0.00 75 1007.4
20260905054140 60 225 0.0 0.0 0.00 0.12 0.00 75 1007.4
20260905053739 60 315 0.0 0.0 0.00 0.12 0.00 75 1007.3
20260905053140 60 202 0.0 0.0 0.00 0.12 0.00 75 1007.3
20260905053039 60 225 0.0 0.0 0.00 0.12 0.00 75 1007.3
20260905052339 60 337 0.0 0.0 0.00 0.12 0.00 74 1007.3
20260905052140 60 337 0.0 0.0 0.00 0.12 0.00 74 1007.3
20260905051639 60 337 0.0 0.0 0.00 0.12 0.00 74 1007.2
20260905051140 60 337 0.0 0.0 0.00 0.12 0.00 74 1007.2
20260905050939 60 202 0.0 0.0 0.00 0.12 0.00 74 1007.0
20260905050239 60 315 0.0 0.0 0.00 0.12 0.00 75 1006.9
20260905050140 60 315 0.0 0.0 0.00 0.12 0.00 75 1006.9
20260905045539 60 337 0.0 0.0 0.00 0.12 0.00 75 1006.7
20260905045140 61 225 0.0 0.0 0.00 0.12 0.00 75 1006.9
20260905044839 61 0 0.0 0.0 0.00 0.12 0.00 75 1006.7
20260905044139 61 157 0.0 0.0 0.00 0.12 0.00 75 1006.6
20260905043439 61 180 0.0 0.0 0.00 0.12 0.00 75 1006.5
20260905042739 61 337 2.0 2.0 0.00 0.12 0.00 75 1006.3
20260905042140 62 337 0.0 0.0 0.00 0.12 0.00 76 1006.0
20260905042039 62 337 0.0 0.0 0.00 0.12 0.00 76 1006.0
20260905041339 62 337 0.0 0.0 0.00 0.12 0.00 77 1005.9
20260905041140 62 247 0.0 0.0 0.00 0.12 0.00 77 1006.0
20260905040639 62 315 0.0 0.0 0.00 0.12 0.00 78 1005.6
20260905040140 62 225 0.0 0.0 0.00 0.12 0.00 79 1005.9
20260905035939 62 337 0.0 0.0 0.00 0.12 0.00 79 1005.5
20260905035239 62 337 0.0 0.0 0.00 0.12 0.00 79 1005.4
20260905035140 62 337 0.0 0.0 0.00 0.12 0.00 80 1005.3
20260905034539 62 337 0.0 0.0 0.00 0.12 0.00 80 1005.2
20260905034140 62 292 0.0 0.0 0.00 0.12 0.00 80 1005.1
20260905033839 62 180 0.0 0.0 0.00 0.12 0.00 80 1005.1
20260905033139 62 157 0.0 0.0 0.00 0.12 0.00 80 1005.0
20260905032439 62 0 0.0 0.0 0.00 0.12 0.00 80 1005.0
20260905032140 62 315 0.0 0.0 0.00 0.12 0.00 80 1004.9
20260905031739 62 225 0.0 0.0 0.00 0.12 0.00 80 1004.7
20260905031140 62 157 0.0 0.0 0.00 0.12 0.00 80 1004.7
20260905031039 62 337 0.0 0.0 0.00 0.12 0.00 80 1004.6
20260905030339 62 157 0.0 0.0 0.00 0.12 0.00 80 1005.0
20260905025639 62 157 0.0 0.0 0.00 0.12 0.00 80 1004.6
20260905025140 62 225 0.0 0.0 0.00 0.12 0.00 81 1004.6
20260905024939 62 22 0.0 0.0 0.00 0.12 0.00 81 1004.7
20260905024239 62 0 0.0 0.0 0.00 0.12 0.00 81 1004.6
20260905024140 62 0 0.0 0.0 0.00 0.12 0.00 81 1004.5
20260905023539 63 0 0.0 0.0 0.00 0.12 0.00 80 1004.6
20260905023140 63 225 0.0 0.0 0.00 0.12 0.00 80 1004.6
20260905022839 63 292 0.0 0.0 0.00 0.12 0.00 80 1004.6
20260905022139 63 337 0.0 0.0 0.00 0.12 0.00 80 1004.6
20260905021439 63 202 0.0 0.0 0.00 0.12 0.00 80 1004.2
20260905021140 63 180 0.0 0.0 0.00 0.12 0.00 80 1004.2
20260905020739 63 292 0.0 0.0 0.00 0.12 0.00 80 1004.3
20260905020140 63 315 0.0 0.0 0.00 0.12 0.00 80 1004.2
20260905020039 63 180 0.0 0.0 0.00 0.12 0.00 80 1004.2
20260905015339 63 337 0.0 0.0 0.00 0.12 0.00 80 1003.8
20260905015140 63 157 0.0 0.0 0.00 0.12 0.00 80 1003.7
20260905014656 63 292 0.0 5.0 0.00 0.12 0.00 80 1003.8
20260905014140 64 157 0.0 5.0 0.00 0.12 0.00 80 1004.0
20260905013940 64 0 5.0 5.0 0.00 0.12 0.00 80 1004.0
20260905013240 64 157 0.0 0.0 0.00 0.12 0.00 80 1004.0
20260905013140 64 157 0.0 0.0 0.00 0.12 0.00 80 1003.9
20260905012540 64 202 0.0 0.0 0.00 0.12 0.00 80 1003.8
20260905012140 64 337 0.0 0.0 0.00 0.12 0.00 80 1003.9
20260905011840 64 337 0.0 0.0 0.00 0.12 0.00 80 1004.1
20260905011140 64 337 0.0 0.0 0.00 0.12 0.00 80 1003.7
20260905010440 64 337 0.0 0.0 0.00 0.12 0.00 81 1003.6
20260905010140 64 315 0.0 0.0 0.00 0.12 0.00 81 1003.7
20260905005740 64 315 0.0 6.0 0.00 0.12 0.00 81 1003.3
20260905005140 64 157 0.0 0.0 0.00 0.12 0.00 82 1003.3
20260905005040 64 157 0.0 0.0 0.00 0.12 0.00 82 1003.5
20260905004340 64 337 0.0 0.0 0.00 0.12 0.00 83 1003.3
20260905004140 64 315 0.0 0.0 0.00 0.12 0.00 83 1003.2
20260905003640 64 337 0.0 0.0 0.00 0.12 0.00 83 1003.2
20260905003140 64 247 0.0 0.0 0.00 0.12 0.00 84 1003.1
20260905002940 64 315 0.0 0.0 0.00 0.12 0.00 84 1003.0
20260905002240 64 0 0.0 0.0 0.00 0.12 0.00 84 1002.8
20260905002140 64 315 0.0 0.0 0.00 0.12 0.00 84 1003.0
20260905001540 64 22 0.0 0.0 0.00 0.12 0.00 85 1003.1
20260905001140 64 315 0.0 0.0 0.00 0.12 0.00 85 1003.1
20260905000840 64 180 0.0 0.0 0.00 0.12 0.00 85 1003.1
20260905000140 64 180 0.0 0.0 0.00 0.12 0.00 85 1003.2
20260904235440 64 180 0.0 0.0 0.00 0.12 0.00 85 1003.1
20260904235140 64 180 0.0 0.0 0.00 0.12 0.00 86 1003.0
20260904234740 64 180 0.0 0.0 0.00 0.12 0.00 86 1003.1
20260904234140 64 0 0.0 0.0 0.00 0.12 0.00 86 1002.9
20260904234040 64 247 0.0 0.0 0.00 0.12 0.00 86 1002.9
20260904233340 64 202 0.0 0.0 0.00 0.12 0.00 86 1002.8
20260904233141 64 202 0.0 0.0 0.00 0.12 0.00 86 1002.8
20260904232640 64 247 0.0 0.0 0.00 0.12 0.00 87 1002.7
20260904232141 64 315 0.0 0.0 0.00 0.12 0.00 87 1002.8
20260904231940 64 315 0.0 0.0 0.00 0.12 0.00 87 1002.7
20260904231240 64 337 0.0 0.0 0.00 0.12 0.00 87 1002.8
20260904231141 64 337 0.0 0.0 0.00 0.12 0.00 87 1002.9
20260904230540 64 337 0.0 0.0 0.00 0.12 0.00 87 1002.8
20260904225840 64 247 0.0 0.0 0.00 0.12 0.00 87 1002.7
20260904225140 64 180 0.0 0.0 0.00 0.14 0.00 87 1002.8
20260904224440 64 315 0.0 0.0 0.00 0.14 0.00 87 1002.7
20260904223740 64 202 0.0 0.0 0.00 0.14 0.00 86 1002.4
20260904223141 64 180 0.0 0.0 0.00 0.14 0.00 86 1002.3
20260904223040 64 337 0.0 0.0 0.00 0.14 0.00 86 1002.3
20260904222340 64 202 0.0 0.0 0.00 0.14 0.00 86 1002.2
20260904222141 64 202 0.0 0.0 0.00 0.14 0.00 86 1002.4
20260904221640 64 202 0.0 0.0 0.00 0.14 0.00 86 1002.5
20260904221141 64 180 0.0 0.0 0.00 0.14 0.00 86 1002.3
20260904220940 64 202 0.0 0.0 0.00 0.14 0.00 86 1002.3
20260904220240 64 157 0.0 0.0 0.00 0.14 0.00 85 1002.4
20260904220141 64 157 0.0 0.0 0.00 0.14 0.00 85 1002.3
20260904215540 64 202 0.0 0.0 0.00 0.14 0.00 85 1002.4